Flag for U.S.A. Weather past 2 weeks in Vallejo, California, U.S.A.

Now
63 °F

Clear.


Feels Like: 63 °F
Forecast: 59 / 77 °F
Wind: 7 mph from South

Location: Napa County Airport

Current Time: Aug 31, 2015 at 11:17:32 PM

Latest Report: Aug 31, 2015 at 9:54 PM


Visibility: 10 mi

Pressure: 29.83 "Hg

Humidity: 84%

Dew point: 58 °F

Location of VallejoLocation

Historic Weather in Vallejo — Graph

°F

Vallejo temperature yesterday

Maximum temperature yesterday: 82 °F (at 3:54 PM)
Minimum temperature yesterday: 58 °F (at 6:54 AM)
Average temperature yesterday: 68 °F

Past Weeks' High & Low Weather Summary

 TemperatureHumidityPressure
High92 °F (Aug 28, 2:54 PM)100% (Aug 25, 5:54 AM)30.03 "Hg (Aug 25, 5:54 AM)
Low52 °F (Aug 25, 5:54 AM)19% (Aug 26, 5:54 PM)29.75 "Hg (Aug 17, 4:54 PM)
Average66 °F72%29.90 "Hg
* Reported Aug 16 9:54 PM — Aug 31 9:54 PM, Vallejo, Weather by CustomWeather, © 2015

Note: Actual official high and low records may vary slightly from our data, if they occured in-between our weather recording intervals... More about our weather records

Advertising

Vallejo weather history for previous 24 hours

 ConditionsComfort  
Time TempWeatherWind HumidityBarometerVisibility
9:54 PM
Mon, Aug 31
63 °FClear.7 mph84%29.83 "Hg10 mi
7:54 PM68 °FSunny.9 mph76%29.80 "Hg10 mi
6:54 PM73 °FSunny.13 mph62%29.80 "Hg10 mi
5:54 PM76 °FSunny.16 mph56%29.80 "Hg10 mi
4:54 PM79 °FSunny.16 mph50%29.81 "Hg10 mi
3:54 PM80 °FSunny.20 mph47%29.82 "Hg10 mi
2:54 PM81 °FSunny.15 mph45%29.84 "Hg10 mi
1:54 PM80 °FSunny.14 mph45%29.87 "Hg10 mi
12:54 PM77 °FSunny.10 mph50%29.88 "Hg10 mi
11:54 AM75 °FSunny.8 mph55%29.90 "Hg10 mi
10:54 AM71 °FSunny.6 mph63%29.91 "Hg10 mi
9:54 AM68 °FSunny.5 mph68%29.91 "Hg10 mi
8:54 AM66 °FSunny.No wind63%29.91 "Hg10 mi
7:54 AM60 °FSunny.5 mph83%29.91 "Hg10 mi
6:54 AM55 °FClear.6 mph93%29.90 "Hg10 mi
5:54 AM52 °FClear.5 mph89%29.89 "Hg10 mi
4:54 AM53 °FClear.No wind89%29.89 "Hg10 mi
3:54 AM56 °FClear.5 mph87%29.89 "Hg10 mi
2:54 AM58 °FClear.No wind84%29.87 "Hg10 mi
1:54 AM57 °FClear.No wind83%29.88 "Hg10 mi
12:54 AM58 °FClear.No wind81%29.89 "Hg10 mi
11:54 PM
Sun, Aug 30
61 °FClear.3 mph78%29.89 "Hg10 mi
Weather by CustomWeather, © 2015

See weather overviewHow to use our weather pages